Retour au catalogue

STARLINK-5983

ActifCommunicationsVLEO
NORAD 57224·PAYLOAD·🇺🇸 United States

Lancé Jul 7, 2023 depuis Vandenberg Space Force Base

Loading…

Prochains Passages (prochaines 24 heures)

TLE

FraisSource: CelesTrak SupGP

Époque: Sep 15, 2026, 02:48 UTC

1 57224C 23094G   26258.11715278 -.00036083  00000+0 -13068-2 0  2582
2 57224  43.0023  40.6800 0001655 267.0020 282.1194 15.27598898    16

Suivez STARLINK-5983 en temps réel avec AllMySat

Download on the App Store